{"data":{"norad_id":68395,"intl_designator":"2026-063R","name":"STARLINK-37172","alt_names":[],"object_type":"PAYLOAD","status":"ACTIVE","operator":null,"country":"US","launch_date":"2026-03-26","launch_site_code":"AFWTR","launch_vehicle":null,"mission":null,"orbit_class":"UNKNOWN","rcs_meters":null,"size_class":null,"mass_kg":null,"dimensions":null,"purposes":["comms"],"wikipedia_slug":null,"has_3d_model":false,"image_url":null,"decayed_at":null,"tle_current":{"epoch":"2026-05-25T02:46:19.606944Z","epoch_age_seconds":59017,"freshness":"FRESH","line1":"1 68395U 26063R   26145.11550471  .00017586  00000+0  54557-3 0  9995","line2":"2 68395  97.2857 287.6184 0000986  78.8973 281.2380 15.33458157  9603","mean_motion":15.33458157,"eccentricity":9.86e-5,"inclination_deg":97.2857,"raan_deg":287.6184,"arg_perigee_deg":78.8973,"mean_anomaly_deg":281.238,"bstar":0.00054557,"rev_number":960,"period_min":93.905398945946,"perigee_km":464.82924577732,"apogee_km":466.1788117882,"semimajor_km":6843.6410287828,"source":"CELESTRAK","updated_at":"2026-05-25T13:38:21.931551Z"}}}